Concrete, North Dakota
Current Conditions -  °F | °C
As of 11:35 AM on Friday 24 Oct 2014 (Local Time) from K2C8 Reporting Station
Few Clouds Few Clouds  
Wind Chill: 63°   Ceiling: Unl
Heat Index: 63°   Visibility: 10mi
Dew Point: 41°   Wind: 16mph
Humidity: 45%   Direction: 260°W
Pressure: 29.7"   Gusts: 22mph
Location:  48.8218°N, 97.697°W
Report Text: K2C8 241635Z AUTO 26014G19KT 10SM FEW120 17/05 A2970 RMK AO2
Loading
Personal Weather Stations






























Interactive Weather Map New forecast layout! Learn more

10-Day Weather Forecast

Advertisements
Track Severe Weather on mobile